Hourly Data Report for September 12, 2017

All times are specified in Local Standard Time (LST). Add 1 hour to adjust for Daylight Saving Time where and when it is observed.

KAMLOOPS A
BRITISH COLUMBIA

50°42'09.000" N
120°26'55.000" W
345.30 m
1163781
71887
YKA

Download Data

Hourly Data (September 2017)
Hourly Data Report for September 12, 2017
Temp Definition
°C
Dew Point Temp Definition
°C
Rel Hum Definition
%
Wind Dir Definition
10's deg

Wind Spd Definition
km/h
Visibility Definition
km
Stn Press Definition
kPa
Hmdx Definition


Wind Chill Definition


Weather Definition


TIME
00:00 Legend Double Dagger 20.2 11.5 57 18 4 64.4 97.30     LegendNANA
01:00 Legend Double Dagger 18.8 11.8 64 36 2 64.4 97.32     Mostly Cloudy
02:00 Legend Double Dagger 16.6 11.1 70 25 10 64.4 97.35     LegendNANA
03:00 Legend Double Dagger 15.2 11.3 77 31 4 64.4 97.34     LegendNANA
04:00 Legend Double Dagger 16.1 11.2 72 33 4 64.4 97.32     Mainly Clear
05:00 Legend Double Dagger 14.3 10.9 80 28 4 64.4 97.32     LegendNANA
06:00 Legend Double Dagger 15.2 10.8 74 28 4 64.4 97.32     LegendNANA
07:00 Legend Double Dagger 16.0 11.4 74 26 5 64.4 97.36     Cloudy
08:00 Legend Double Dagger 16.4 11.9 74 19 5 64.4 97.35     LegendNANA
09:00 Legend Double Dagger 17.6 11.4 67 36 1 64.4 97.37     LegendNANA
10:00 Legend Double Dagger 18.7 10.6 59 28 22 64.4 97.34     Cloudy
11:00 Legend Double Dagger 19.4 10.1 54 27 22 64.4 97.25     LegendNANA
12:00 Legend Double Dagger 21.3 10.0 48 28 17 64.4 97.20     LegendNANA
13:00 Legend Double Dagger 22.0 8.7 42 30 20 64.4 97.14     Mostly Cloudy
14:00 Legend Double Dagger 23.0 9.0 40 33 14 64.4 97.04     LegendNANA
15:00 Legend Double Dagger 24.6 9.2 37 33 4 64.4 96.95 26   LegendNANA
16:00 Legend Double Dagger 23.2 10.4 44 22 7 64.4 96.90 25   Rain Showers
17:00 Legend Double Dagger 22.9 10.0 44 9 7 64.4 96.84     LegendNANA
18:00 Legend Double Dagger 21.1 10.9 52 36 3 64.4 96.87     LegendNANA
19:00 Legend Double Dagger 17.0 13.9 82 23 3 64.4 97.00     Rain Showers
20:00 Legend Double Dagger 16.8 9.3 61 28 25 64.4 97.07     LegendNANA
21:00 Legend Double Dagger 16.8 7.1 52 29 18 64.4 97.19     LegendNANA
22:00 Legend Double Dagger 14.9 8.4 65 28 7 64.4 97.28     Cloudy
23:00 Legend Double Dagger 14.6 8.0 64 36 1 64.4 97.33     LegendNANA

Notes on Data Quality.

Legend

  • E = Estimated
  • M = Missing
  • NA = Not Available
  • ‡ = Partner data that is not subject to review by the National Climate Archives
Date modified: